When you browse on this site, cookies collect data to enhance your experience and personalize the content and advertising you see.
Visit our Privacy Policy to learn more. By continuing to use the site, you agree to this use of cookies and data.
  • In Hungary
  • List of Countries
  • For 7 days
  • Water Temperature
  • Satellite Maps
  • Weather Map
  • News
  • Weather Widgets
  • user-avatar
    Login

    Hourly Weather Huantuo

    Today, 18 December, Tuesday

    Time Temperature Precipitation Wind Pressure Humidity
    00:00 +1°C° 0 mm 3 mps 764 mmHg 34%
    01:00 0°C° 0 mm 3 mps 764 mmHg 35%
    02:00 +1°C° 0 mm 2 mps 764 mmHg 37%
    03:00 +1°C° 0 mm 2 mps 764 mmHg 37%
    04:00 -1°C° 0 mm 2 mps 764 mmHg 37%
    05:00 -1°C° 0 mm 2 mps 764 mmHg 37%
    06:00 -1°C° 0 mm 3 mps 764 mmHg 35%
    07:00 -1°C° 0 mm 3 mps 765 mmHg 32%
    08:00 0°C° 0 mm 3 mps 765 mmHg 31%
    09:00 +1°C° 0 mm 4 mps 765 mmHg 27%
    10:00 +4°C° 0 mm 4 mps 765 mmHg 23%
    11:00 +6°C° 0 mm 5 mps 766 mmHg 19%
    12:00 +6°C° 0 mm 4 mps 765 mmHg 18%
    13:00 +7°C° 0 mm 4 mps 765 mmHg 17%
    14:00 +9°C° 0 mm 2 mps 764 mmHg 16%
    15:00 +8°C° 0 mm 2 mps 764 mmHg 18%
    16:00 +7°C° 0 mm 2 mps 764 mmHg 20%
    17:00 +6°C° 0 mm 1 mps 764 mmHg 22%
    18:00 +6°C° 0 mm 1 mps 764 mmHg 24%
    19:00 +5°C° 0 mm 1 mps 764 mmHg 27%
    20:00 +5°C° 0 mm 1 mps 764 mmHg 29%
    21:00 +4°C° 0 mm 1 mps 764 mmHg 32%
    22:00 +4°C° 0 mm 1 mps 764 mmHg 34%
    23:00 +3°C° 0 mm 1 mps 764 mmHg 37%

    Tomorrow, 19 December, Wednesday

    Time Temperature Precipitation Wind Pressure Humidity
    00:00 +3°C° 0 mm 1 mps 764 mmHg 38%
    01:00 +3°C° 0 mm 1 mps 764 mmHg 39%
    02:00 +2°C° 0 mm 1 mps 764 mmHg 41%
    03:00 +2°C° 0 mm 1 mps 764 mmHg 40%
    04:00 +1°C° 0 mm 1 mps 764 mmHg 39%
    05:00 +1°C° 0 mm 1 mps 764 mmHg 38%
    06:00 -1°C° 0 mm 2 mps 765 mmHg 36%
    07:00 -1°C° 0 mm 2 mps 765 mmHg 35%
    08:00 -1°C° 0 mm 2 mps 766 mmHg 33%
    09:00 +1°C° 0 mm 3 mps 766 mmHg 30%
    10:00 +3°C° 0 mm 4 mps 766 mmHg 26%
    11:00 +5°C° 0 mm 5 mps 767 mmHg 22%
    12:00 +6°C° 0 mm 5 mps 766 mmHg 21%
    13:00 +6°C° 0 mm 5 mps 766 mmHg 21%
    14:00 +7°C° 0 mm 5 mps 766 mmHg 20%
    15:00 +6°C° 0 mm 4 mps 766 mmHg 22%
    16:00 +5°C° 0 mm 3 mps 766 mmHg 24%
    17:00 +5°C° 0 mm 2 mps 766 mmHg 27%
    18:00 +4°C° 0 mm 2 mps 767 mmHg 28%
    19:00 +3°C° 0 mm 2 mps 767 mmHg 30%
    20:00 +4°C° 0 mm 1 mps 767 mmHg 31%
    21:00 +3°C° 0 mm 1 mps 768 mmHg 32%
    22:00 +3°C° 0 mm 1 mps 768 mmHg 33%
    23:00 +2°C° 0 mm 1 mps 768 mmHg 34%

    Day after tomorrow, 20 December, Thursday

    Time Temperature Precipitation Wind Pressure Humidity
    00:00 +2°C° 0 mm 1 mps 768 mmHg 35%
    01:00 +1°C° 0 mm 0 mps 768 mmHg 36%
    02:00 0°C° 0 mm 0 mps 768 mmHg 37%
    03:00 +1°C° 0 mm 1 mps 768 mmHg 37%
    04:00 +1°C° 0 mm 1 mps 767 mmHg 38%
    05:00 +1°C° 0 mm 1 mps 767 mmHg 38%
    06:00 +1°C° 0 mm 1 mps 768 mmHg 39%
    07:00 +1°C° 0 mm 1 mps 768 mmHg 40%
    08:00 +1°C° 0 mm 1 mps 768 mmHg 40%
    09:00 +3°C° 0 mm 1 mps 768 mmHg 38%
    10:00 +4°C° 0 mm 1 mps 769 mmHg 36%
    11:00 +6°C° 0 mm 1 mps 769 mmHg 33%
    12:00 +7°C° 0 mm 1 mps 768 mmHg 33%
    13:00 +8°C° 0 mm 1 mps 768 mmHg 33%
    14:00 +7°C° 0 mm 2 mps 767 mmHg 33%
    15:00 +7°C° 0 mm 2 mps 767 mmHg 36%
    16:00 +6°C° 0 mm 2 mps 767 mmHg 40%
    17:00 +6°C° 0 mm 2 mps 766 mmHg 44%
    18:00 +5°C° 0 mm 2 mps 767 mmHg 48%
    19:00 +6°C° 0 mm 1 mps 767 mmHg 52%
    20:00 +6°C° 0 mm 1 mps 767 mmHg 56%
    21:00 +5°C° 0 mm 1 mps 767 mmHg 58%
    22:00 +5°C° 0 mm 1 mps 767 mmHg 59%
    23:00 +5°C° 0 mm 1 mps 767 mmHg 61%

    21 December, Friday

    Time Temperature Precipitation Wind Pressure Humidity
    00:00 +5°C° 0 mm 1 mps 767 mmHg 61%
    01:00 +5°C° 0 mm 1 mps 767 mmHg 61%
    02:00 +4°C° 0 mm 1 mps 767 mmHg 62%
    03:00 +4°C° 0 mm 1 mps 767 mmHg 63%
    04:00 +3°C° 0 mm 1 mps 766 mmHg 64%
    05:00 +2°C° 0 mm 2 mps 766 mmHg 65%
    06:00 +1°C° 0 mm 2 mps 767 mmHg 65%
    07:00 +1°C° 0 mm 2 mps 767 mmHg 64%
    08:00 +1°C° 0 mm 2 mps 768 mmHg 63%
    09:00 +2°C° 0 mm 2 mps 768 mmHg 52%
    10:00 +3°C° 0 mm 3 mps 769 mmHg 41%
    11:00 +5°C° 0 mm 3 mps 769 mmHg 30%
    12:00 +7°C° 0 mm 3 mps 768 mmHg 26%
    13:00 +8°C° 0 mm 3 mps 768 mmHg 22%
    14:00 +8°C° 0 mm 4 mps 768 mmHg 17%
    15:00 +8°C° 0 mm 3 mps 768 mmHg 19%
    16:00 +7°C° 0 mm 2 mps 768 mmHg 21%
    17:00 +7°C° 0 mm 1 mps 768 mmHg 22%
    18:00 +6°C° 0 mm 1 mps 768 mmHg 23%
    19:00 +5°C° 0 mm 1 mps 769 mmHg 25%
    20:00 +5°C° 0 mm 1 mps 769 mmHg 26%
    21:00 +5°C° 0 mm 1 mps 769 mmHg 27%
    22:00 +3°C° 0 mm 2 mps 770 mmHg 28%
    23:00 +3°C° 0 mm 2 mps 770 mmHg 29%

    22 December, Saturday

    Time Temperature Precipitation Wind Pressure Humidity
    00:00 +3°C° 0 mm 2 mps 770 mmHg 30%
    01:00 +3°C° 0 mm 2 mps 770 mmHg 31%
    02:00 +3°C° 0 mm 2 mps 770 mmHg 32%
    03:00 +2°C° 0 mm 2 mps 770 mmHg 32%
    04:00 +2°C° 0 mm 2 mps 770 mmHg 32%
    05:00 +2°C° 0 mm 2 mps 770 mmHg 33%
    06:00 +2°C° 0 mm 2 mps 770 mmHg 32%
    07:00 +2°C° 0 mm 2 mps 771 mmHg 31%
    08:00 +2°C° 0 mm 2 mps 771 mmHg 30%
    09:00 +3°C° 0 mm 3 mps 772 mmHg 26%
    10:00 +4°C° 0 mm 4 mps 772 mmHg 22%
    11:00 +6°C° 0 mm 5 mps 773 mmHg 18%
    12:00 +6°C° 0 mm 5 mps 772 mmHg 17%
    13:00 +7°C° 0 mm 5 mps 772 mmHg 16%
    14:00 +7°C° 0 mm 6 mps 772 mmHg 14%
    15:00 +6°C° 0 mm 5 mps 772 mmHg 16%
    16:00 +5°C° 0 mm 4 mps 773 mmHg 17%
    17:00 +4°C° 0 mm 3 mps 773 mmHg 18%
    18:00 +3°C° 0 mm 3 mps 774 mmHg 19%
    19:00 +3°C° 0 mm 4 mps 774 mmHg 21%
    20:00 +1°C° 0 mm 4 mps 775 mmHg 22%
    21:00 +1°C° 0 mm 4 mps 775 mmHg 20%
    22:00 0°C° 0 mm 4 mps 776 mmHg 19%
    23:00 0°C° 0 mm 4 mps 776 mmHg 17%

    23 December, Sunday

    Time Temperature Precipitation Wind Pressure Humidity
    00:00 -1°C° 0 mm 4 mps 776 mmHg 15%
    01:00 0°C° 0 mm 3 mps 776 mmHg 14%
    02:00 -1°C° 0 mm 3 mps 776 mmHg 13%
    03:00 -2°C° 0 mm 3 mps 776 mmHg 12%
    04:00 -2°C° 0 mm 3 mps 776 mmHg 11%
    05:00 -4°C° 0 mm 3 mps 776 mmHg 11%
    06:00 -4°C° 0 mm 3 mps 777 mmHg 10%
    07:00 -3°C° 0 mm 2 mps 777 mmHg 10%
    08:00 -3°C° 0 mm 2 mps 777 mmHg 10%
    09:00 -2°C° 0 mm 2 mps 777 mmHg 9%
    10:00 -1°C° 0 mm 2 mps 777 mmHg 8%
    11:00 +1°C° 0 mm 2 mps 777 mmHg 7%
    12:00 +3°C° 0 mm 1 mps 776 mmHg 7%
    13:00 +4°C° 0 mm 1 mps 775 mmHg 6%
    14:00 +4°C° 0 mm 1 mps 775 mmHg 6%
    15:00 +4°C° 0 mm 1 mps 774 mmHg 7%
    16:00 +3°C° 0 mm 1 mps 774 mmHg 8%
    17:00 +2°C° 0 mm 1 mps 774 mmHg 9%
    18:00 +2°C° 0 mm 1 mps 774 mmHg 10%
    19:00 +2°C° 0 mm 1 mps 774 mmHg 11%
    20:00 +1°C° 0 mm 1 mps 774 mmHg 12%
    21:00 +1°C° 0 mm 1 mps 774 mmHg 13%
    22:00 0°C° 0 mm 1 mps 773 mmHg 15%
    23:00 0°C° 0 mm 1 mps 773 mmHg 17%
    Show more